Location: Newark
(44.3449°N, 4.8694°E)
Time: 13:53:57
(UTC+00:00)

Envisat - Pass Details

Date: 29 January 2020
Orbit: 764 x 766 km, 98.1° (Epoch: 28 February)

Event Time Altitude Azimuth Distance (km) Brightness Sun altitude
Rises 05:23:23 0° 25° (NNE) 3,242 6.5 -17.8°
Reaches altitude 10° 05:26:09 10° 40° (NE) 2,310 5.9 -17.3°
Maximum altitude 05:30:12 24° 93° (E) 1,565 5.5 -16.6°
Drops below altitude 10° 05:34:13 10° 146° (SE) 2,295 6.1 -15.9°
Sets 05:36:57 0° 160° (SSE) 3,216 6.7 -15.4°
